Temperature
18 18 18 18 18 17 17 17 17 17 17 17 17 17 17 17 17 17 17 16 16 16 16 16 16 16 16 16 16 15 15 15 15 15 15 15 15 15 15 15 15 15 15
18 18 18 18 17 17 17 17 17 16 16 16 16 16 16 16 16 16 16 16 16 16 16 16 16 16 16 15 15 15 15 15 15 15 15 15 15 15 15 15 15 15 15
18 18 17 17 17 17 17 17 17 16 16 16 16 16 16 16 16 16 16 16 16 16 16 16 15 15 15 15 15 15 15 15 15 15 15 15 15 15 15 15 15 15 15
17 17 17 17 17 17 17 16 16 16 16 16 16 15 15 15 15 15 15 15 15 15 15 15 15 15 15 15 15 15 15 15 14 14 14 14 14 14 14 14 14 14 14
17 17 17 17 16 16 16 16 16 16 15 15 15 15 15 15 15 15 15 15 15 15 15 15 15 15 15 14 14 14 14 14 14 14 14 14 14 14 14 14 14 14 14
17 16 16 16 16 16 16 16 15 15 15 15 15 15 15 15 15 15 14 14 14 15 15 15 14 14 14 14 14 14 14 14 14 13 13 13 13 13 14 14 13 13 13
16 16 16 16 16 15 15 15 15 15 15 15 15 15 15 15 14 14 14 14 14 14 14 14 14 14 14 14 14 14 14 13 13 13 13 13 13 13 13 13 13 13 13
16 16 16 15 15 15 15 15 15 14 14 14 14 14 14 14 14 14 14 14 14 14 14 13 13 13 13 13 13 13 13 13 13 13 13 13 13 13 13 13 13 13 13
16 16 15 15 15 15 14 14 14 14 14 14 14 14 14 13 13 13 14 14 13 13 13 13 13 13 13 13 13 13 13 13 13 13 13 13 12 12 12 12 12 12 12
16 15 15 15 14 14 14 14 14 14 14 13 13 13 13 13 13 13 13 13 13 13 13 13 13 13 13 13 13 13 13 13 13 13 13 12 12 12 12 12 12 12 11
15 15 15 14 14 14 14 14 14 14 13 13 13 13 13 13 13 12 12 13 13 13 13 12 12 12 12 12 12 12 12 12 12 12 12 12 12 12 12 12 11 11 11
15 14 14 14 14 13 14 14 13 13 13 13 12 12 12 12 12 12 12 12 12 12 12 12 12 12 12 12 11 11 11 11 11 11 11 11 11 11 11 11 11 11 11
14 14 14 14 14 13 13 13 13 13 13 12 12 12 12 12 12 12 12 12 12 12 11 11 11 11 11 11 11 11 11 11 11 11 11 11 11 11 11 11 11 11 11
14 14 14 14 14 13 13 13 13 13 12 12 12 12 12 12 12 12 12 11 11 11 11 11 11 10 11 11 11 11 11 10 10 10 10 10 10 10 10 10 10 10 10
13 13 13 13 13 13 13 13 12 12 12 12 12 12 12 12 12 12 11 11 11 11 11 11 10 10 10 10 10 10 10 10 10 10 10 10 10 10 10 10 10 10 10
13 13 13 13 13 13 12 12 12 12 12 12 11 11 11 11 11 11 11 11 11 10 10 10 10 10 10 10 9 9 9 9 9 9 9 9 9 9 9 9 9 9 9
13 13 13 12 12 12 12 12 12 12 12 12 11 11 11 11 11 11 11 11 10 10 10 10 10 9 9 9 9 9 9 9 9 9 9 8 8 8 8 8 8 8 8
13 12 12 12 12 12 12 12 12 11 11 11 11 11 11 11 11 11 10 10 10 10 9 9 9 9 9 9 9 8 8 8 8 8 8 8 8 8 8 8 8 8 8
12 12 12 12 12 12 12 12 11 11 11 11 11 11 11 10 10 10 10 10 10 9 9 9 9 9 8 8 8 8 8 8 8 8 8 7 7 7 7 7 7 7 7
12 12 12 12 12 11 11 11 11 11 11 11 11 10 10 10 10 10 10 10 9 9 9 9 8 8 8 8 8 8 8 8 7 7 7 7 7 7 7 7 7 7 7
12 12 12 11 11 11 11 11 11 10 10 10 10 10 10 10 10 10 10 9 9 9 9 8 8 8 8 8 8 7 7 7 7 7 7 7 7 6 6 6 6 6 6
12 12 12 11 11 11 11 11 10 10 10 10 10 10 10 10 10 9 9 9 9 9 9 8 8 8 8 8 7 7 7 7 7 7 7 7 6 6 6 6 6 6 6
12 12 11 11 11 11 11 10 10 10 10 10 10 10 10 10 9 9 9 9 9 9 9 8 8 8 8 8 7 7 7 7 7 6 6 6 6 6 6 6 6 6 5
11 11 11 11 11 10 10 10 10 10 10 10 10 10 9 9 9 9 9 9 9 8 8 8 8 8 8 7 7 7 7 7 7 6 6 6 6 6 6 5 5 5 5
11 11 11 10 10 10 10 10 10 10 10 9 9 9 9 9 9 9 9 9 8 8 8 8 8 7 7 7 7 7 7 6 6 6 6 6 6 6 5 5 5 5 5
10 10 10 10 10 10 10 10 10 10 10 9 9 9 9 9 9 9 8 8 8 8 8 8 7 7 7 7 7 6 6 6 6 6 6 6 5 5 5 5 5 5 4
Wind_Speed
3 3 2 1 1 1 1 0 0 0 0 0 1 1 1 1 1 1 1 1 1 0 1 1 1 1 1 1 1 2 2 2 4 3 2 3 3 4 4 4 4 5 5
3 3 2 2 1 1 1 1 1 1 1 1 1 1 1 1 1 1 1 1 1 0 0 0 1 1 1 1 1 2 2 3 3 4 3 3 4 4 4 4 4 5 5
3 3 2 2 2 2 2 2 1 1 1 0 1 1 1 1 1 1 1 1 1 1 1 1 2 1 2 2 2 2 2 2 2 3 4 3 3 3 3 3 3 3 4
2 2 2 2 3 3 2 2 2 2 1 1 1 1 1 1 1 1 1 1 0 0 1 1 2 2 3 3 2 2 2 2 2 3 3 3 3 2 2 2 3 3 4
2 2 2 2 1 1 1 1 1 1 1 1 1 1 1 1 1 1 1 1 0 0 1 1 2 2 2 2 2 2 2 2 2 2 3 3 3 2 2 2 4 4 4
2 2 1 1 1 1 0 0 1 0 0 0 1 1 1 0 1 2 1 1 0 1 1 2 2 2 2 2 2 3 3 3 4 3 3 4 4 4 3 3 3 3 3
1 1 1 1 1 0 0 1 1 0 0 0 0 0 1 1 1 0 1 1 1 1 1 2 2 2 2 2 2 2 3 4 4 4 5 5 5 5 3 3 3 4 5
1 1 1 1 1 1 0 0 0 0 0 1 1 1 0 1 1 1 1 1 0 1 2 2 2 2 2 1 1 2 2 3 3 4 5 6 5 4 4 4 4 3 3
1 2 1 1 1 1 1 2 2 1 1 1 1 0 0 1 1 2 2 0 1 1 2 2 1 2 3 2 1 2 3 4 3 3 3 4 5 4 3 1 1 1 3
3 2 2 2 2 2 3 2 1 1 1 1 1 0 0 1 2 2 2 1 0 1 2 2 2 2 3 2 1 2 3 5 4 3 3 3 3 3 2 3 3 2 2
3 2 1 2 2 2 2 1 1 1 0 0 1 1 1 1 1 1 1 0 1 1 1 2 2 3 3 3 1 1 3 3 2 2 3 3 3 2 2 3 3 3 4
1 1 1 2 2 1 1 1 1 1 1 0 1 2 2 1 1 1 1 1 1 1 2 2 2 3 2 2 2 3 2 1 1 2 2 3 3 3 3 4 4 4 5
2 2 2 1 1 1 2 2 1 1 1 0 0 1 2 2 2 2 1 1 1 1 2 2 2 2 2 2 2 2 1 1 1 2 2 3 3 4 4 4 4 3 4
2 2 1 1 1 0 1 1 2 1 1 1 1 1 2 2 2 1 1 1 1 1 2 2 2 2 2 3 3 2 1 1 1 1 2 3 3 3 3 3 3 3 3
1 1 1 1 1 1 1 1 1 1 2 3 2 2 1 2 3 2 1 1 1 1 0 1 2 2 3 3 3 2 2 2 1 2 2 3 3 3 3 3 3 3 3
2 1 1 1 1 1 1 0 1 0 1 1 2 2 2 2 2 1 1 1 1 2 2 1 1 1 1 1 2 2 2 2 2 2 2 2 3 3 4 3 3 2 3
3 3 2 2 2 2 1 1 1 2 1 1 1 1 2 2 0 1 1 2 3 4 2 0 0 1 1 1 1 1 2 2 2 2 2 3 3 3 3 4 3 3 4
3 3 2 2 2 2 2 2 2 1 1 2 2 2 2 2 1 1 2 3 2 1 0 1 1 1 1 1 1 2 2 2 2 2 2 2 3 3 3 3 4 4 4
3 2 2 2 2 2 1 1 1 2 1 1 1 2 2 2 0 1 3 1 1 2 2 2 2 2 1 1 1 1 2 2 2 2 3 3 3 3 3 3 3 4 4
2 3 3 2 2 2 1 1 2 2 2 2 2 2 1 1 0 0 1 2 2 3 3 3 3 2 2 2 2 2 2 2 2 3 3 3 3 3 3 4 4 4 4
2 2 3 3 2 2 2 2 3 3 3 3 3 3 3 2 3 3 2 3 3 4 3 3 3 3 3 2 2 2 2 2 2 3 3 3 3 3 3 3 4 4 4
2 2 2 3 2 2 3 3 3 3 3 3 3 3 3 3 3 3 3 3 4 4 4 3 3 3 3 3 3 3 3 3 3 2 3 3 3 3 3 3 3 3 3
3 3 3 3 3 3 3 2 3 3 3 4 3 3 3 3 3 3 4 3 3 3 3 3 3 3 3 3 3 3 3 3 3 3 2 3 3 3 3 3 3 4 3
3 4 4 3 3 3 3 4 3 3 4 4 3 3 4 4 4 4 4 3 3 2 3 3 3 4 4 3 3 3 4 4 4 3 4 3 3 3 3 3 3 3 3
4 4 4 4 3 3 3 3 4 4 4 4 4 4 4 4 4 4 3 3 3 3 3 3 3 3 4 4 3 3 4 4 4 3 3 3 3 3 3 3 3 3 3
3 3 3 3 3 3 3 4 4 4 4 4 4 3 3 3 3 3 3 3 3 3 3 3 3 4 4 3 4 4 4 4 4 4 3 2 2 2 2 2 3 3 3
Wind_Direction
153 156 152 162 170 135 133 180 242 310 279 167 132 120 122 113 114 112 114 107 123 329 303 247 257 240 221 224 216 218 221 221 250 275 263 279 265 270 285 276 271 262 262
168 160 168 163 154 183 217 231 221 248 248 194 147 137 157 167 151 143 174 166 152 135 303 280 278 261 251 248 229 230 232 227 232 268 282 279 267 268 272 276 279 271 270
164 169 171 173 194 219 235 239 233 236 242 185 137 162 196 196 158 155 156 169 167 212 232 229 256 236 255 258 242 236 238 233 230 246 273 273 276 288 282 281 282 279 281
164 181 190 208 219 227 229 228 232 223 216 214 187 187 201 196 169 165 149 139 123 307 277 252 252 235 238 241 245 234 227 229 233 241 265 277 277 287 272 278 287 276 277
154 181 217 225 226 228 232 233 224 199 206 189 167 165 158 175 199 165 168 188 170 330 316 283 261 249 241 237 242 226 210 226 234 245 262 275 271 281 272 264 269 282 271
153 186 215 199 215 233 238 99 90 110 147 117 183 192 180 225 88 131 152 198 213 255 292 308 295 291 283 266 255 235 214 225 236 247 256 263 270 262 261 258 265 279 281
129 168 187 169 153 244 107 74 64 32 73 3 267 198 214 311 48 121 134 171 206 259 276 295 305 313 310 277 275 271 265 252 235 238 250 258 265 262 253 255 252 260 268
155 222 214 213 231 264 152 147 288 318 293 256 246 240 238 344 44 65 81 131 227 295 289 283 282 300 307 293 275 285 283 284 261 248 255 265 267 265 246 244 249 266 285
212 233 225 214 232 243 246 254 259 260 285 285 269 245 326 322 20 70 87 80 9 324 316 323 309 297 315 318 283 287 299 302 296 276 273 283 290 286 260 238 250 282 295
247 241 231 213 213 221 227 234 246 233 252 287 309 293 174 328 17 45 95 142 302 313 337 336 339 340 330 339 263 268 286 295 312 329 331 325 318 313 287 244 231 243 274
253 247 244 231 221 222 219 214 197 182 133 7 343 325 329 311 340 25 52 157 228 272 316 317 324 347 348 345 353 317 285 295 321 338 337 333 334 323 303 283 251 231 241
245 234 247 247 227 204 190 212 206 179 178 284 344 339 330 321 317 313 307 270 236 230 277 294 308 325 341 349 345 327 327 356 6 357 351 339 329 321 313 303 286 263 252
213 230 248 243 227 201 188 196 175 153 177 243 303 303 310 321 324 333 332 318 331 266 276 294 315 330 338 342 353 5 27 36 25 352 327 316 309 308 319 324 321 302 292
214 237 252 253 261 203 173 173 165 180 212 219 221 260 297 311 316 325 323 309 312 314 326 342 357 13 16 360 2 7 8 2 341 311 309 318 330 332 334 332 328 333 326
222 227 226 229 226 221 208 195 194 205 199 195 210 211 227 275 276 259 226 250 255 264 349 27 25 16 4 360 1 0 355 359 347 334 329 329 331 332 331 335 325 321 313
207 215 210 207 207 209 215 293 5 198 119 169 204 204 235 250 280 209 178 85 102 124 105 59 11 351 337 340 348 351 351 338 325 319 316 312 313 316 322 331 326 316 305
207 211 205 202 203 206 195 192 282 342 30 60 262 254 253 271 291 181 170 133 97 108 100 121 270 267 280 284 296 303 311 320 333 332 325 319 317 320 325 328 328 323 315
205 203 195 202 204 207 205 204 204 221 286 313 310 288 277 266 257 154 137 104 66 85 123 231 246 262 282 293 298 307 307 316 324 318 312 314 316 319 323 324 321 315 309
200 203 200 205 199 198 199 201 209 215 226 265 310 317 295 269 251 112 128 133 203 227 238 247 251 250 256 266 286 302 311 313 315 311 310 313 313 313 309 307 306 305 304
214 212 197 196 197 193 189 208 225 223 227 238 251 261 263 90 25 289 207 237 237 238 238 243 250 251 248 254 262 272 290 307 317 314 311 310 308 305 303 305 305 306 305
215 215 202 195 197 199 204 225 230 223 226 241 249 243 210 207 227 239 238 238 239 241 242 245 250 250 247 248 247 253 269 286 293 300 309 312 311 307 303 302 303 301 300
206 207 203 204 206 211 217 225 227 228 231 244 260 255 217 214 231 239 243 247 245 240 235 232 239 243 241 239 237 239 250 265 276 283 293 302 305 304 305 308 312 313 314
204 208 209 215 214 218 229 236 236 241 243 242 242 245 236 234 240 244 248 252 252 250 245 236 239 249 250 244 235 230 238 254 261 261 267 282 290 296 299 298 301 307 308
206 213 220 225 227 229 230 236 239 243 245 247 245 242 241 240 244 245 245 248 249 251 251 238 231 234 244 250 247 244 247 253 255 251 247 250 267 281 286 289 291 295 299
211 216 221 225 230 238 242 243 244 246 247 250 250 247 245 244 245 247 245 242 243 243 245 238 237 240 244 251 260 267 268 258 254 253 247 242 251 266 272 274 279 289 294
213 221 227 229 233 238 244 250 252 252 252 254 250 244 244 244 243 245 247 245 246 249 252 250 248 246 251 257 263 268 268 265 265 261 245 240 258 273 281 276 277 283 290
Height
1520 1521 1522 1522 1523 1523 1522 1523 1523 1523 1523 1523 1523 1523 1523 1523 1523 1523 1523 1523 1523 1523 1523 1523 1523 1523 1523 1523 1523 1523 1524 1524 1522 1522 1522 1522 1522 1521 1521 1521 1520 1520 1520
1519 1520 1520 1520 1521 1521 1520 1521 1521 1521 1521 1521 1521 1521 1521 1521 1521 1521 1521 1521 1521 1520 1521 1521 1521 1521 1521 1521 1521 1520 1521 1521 1520 1518 1518 1518 1518 1518 1517 1517 1517 1516 1516
1517 1518 1518 1518 1519 1519 1518 1519 1519 1519 1519 1518 1519 1519 1519 1519 1519 1519 1519 1519 1518 1518 1518 1518 1518 1518 1518 1518 1518 1517 1517 1517 1517 1516 1515 1514 1514 1514 1513 1513 1512 1512 1512
1516 1516 1516 1516 1516 1516 1517 1517 1516 1516 1516 1516 1516 1516 1517 1516 1516 1516 1516 1516 1516 1516 1516 1516 1516 1515 1515 1515 1515 1514 1514 1514 1514 1513 1512 1511 1510 1510 1509 1509 1508 1508 1508
1515 1515 1514 1514 1514 1514 1514 1514 1514 1514 1514 1513 1513 1513 1514 1514 1514 1514 1514 1514 1513 1513 1513 1513 1513 1513 1512 1512 1512 1512 1511 1511 1510 1509 1508 1507 1506 1506 1505 1505 1505 1505 1504
1513 1513 1513 1513 1513 1512 1512 1511 1511 1511 1511 1511 1511 1510 1510 1511 1511 1511 1511 1511 1511 1510 1510 1510 1510 1510 1509 1509 1509 1509 1509 1508 1507 1506 1505 1504 1503 1502 1502 1501 1501 1501 1500
1512 1512 1512 1511 1511 1510 1509 1509 1508 1508 1508 1508 1508 1508 1508 1508 1508 1508 1509 1508 1508 1508 1507 1507 1506 1506 1506 1506 1506 1506 1505 1504 1504 1503 1502 1501 1500 1499 1499 1498 1498 1497 1497
1510 1510 1510 1509 1508 1508 1507 1506 1506 1506 1505 1505 1505 1505 1505 1505 1506 1506 1506 1506 1505 1505 1505 1504 1504 1503 1503 1503 1502 1502 1501 1500 1500 1499 1498 1498 1497 1497 1496 1495 1494 1494 1493
1508 1508 1507 1507 1506 1505 1505 1504 1504 1503 1503 1502 1502 1502 1502 1502 1503 1503 1503 1502 1502 1502 1502 1501 1501 1500 1500 1500 1499 1498 1497 1497 1496 1496 1495 1494 1493 1493 1492 1491 1490 1490 1489
1506 1506 1505 1505 1504 1504 1503 1502 1502 1501 1501 1500 1500 1500 1500 1500 1500 1500 1500 1499 1499 1499 1498 1498 1498 1497 1497 1496 1495 1494 1493 1493 1492 1491 1491 1490 1489 1489 1488 1487 1487 1486 1485
1505 1504 1504 1503 1503 1502 1501 1501 1500 1500 1499 1498 1497 1497 1497 1497 1498 1498 1497 1497 1496 1496 1495 1495 1495 1494 1494 1493 1492 1491 1490 1490 1488 1487 1486 1486 1485 1485 1484 1484 1484 1483 1482
1503 1502 1501 1501 1501 1500 1500 1499 1499 1498 1497 1496 1496 1495 1495 1495 1495 1495 1495 1495 1494 1494 1493 1492 1492 1492 1491 1490 1490 1489 1488 1487 1486 1484 1483 1483 1482 1482 1481 1481 1481 1480 1479
1501 1500 1500 1499 1499 1498 1498 1497 1497 1496 1495 1494 1494 1493 1493 1494 1493 1493 1493 1493 1492 1492 1491 1491 1490 1489 1489 1488 1487 1486 1485 1484 1483 1482 1481 1480 1480 1479 1478 1478 1477 1476 1475
1498 1498 1498 1497 1497 1497 1496 1496 1495 1494 1493 1493 1492 1491 1492 1492 1491 1490 1490 1490 1489 1489 1489 1488 1488 1487 1486 1485 1484 1483 1482 1481 1480 1479 1478 1478 1477 1476 1475 1474 1473 1472 1471
1496 1495 1495 1495 1495 1495 1494 1494 1493 1493 1492 1492 1491 1490 1490 1489 1489 1488 1488 1487 1486 1486 1486 1485 1484 1483 1482 1482 1481 1480 1479 1479 1477 1477 1476 1475 1474 1473 1472 1471 1470 1469 1468
1493 1493 1493 1493 1493 1493 1492 1492 1492 1491 1491 1491 1490 1490 1489 1488 1487 1486 1486 1485 1484 1484 1483 1482 1481 1481 1480 1479 1479 1478 1477 1476 1475 1474 1473 1472 1470 1469 1468 1468 1467 1465 1464
1491 1491 1490 1490 1490 1490 1490 1490 1489 1489 1489 1488 1488 1488 1487 1486 1486 1485 1484 1483 1482 1481 1480 1479 1479 1478 1478 1477 1476 1475 1475 1474 1473 1471 1470 1469 1468 1466 1465 1464 1463 1462 1460
1488 1488 1488 1488 1488 1488 1488 1487 1487 1487 1486 1485 1485 1485 1485 1484 1484 1483 1482 1481 1479 1478 1477 1477 1476 1476 1476 1475 1474 1473 1472 1472 1470 1469 1467 1466 1465 1464 1462 1461 1460 1459 1457
1486 1486 1486 1486 1486 1486 1485 1485 1485 1484 1484 1483 1483 1483 1482 1482 1481 1480 1479 1478 1476 1475 1475 1475 1474 1473 1473 1472 1472 1471 1470 1469 1468 1467 1465 1464 1463 1461 1460 1458 1456 1456 1455
1485 1485 1484 1484 1484 1483 1483 1482 1482 1481 1481 1481 1480 1480 1480 1479 1478 1477 1476 1475 1474 1473 1473 1472 1472 1471 1470 1470 1470 1469 1468 1467 1466 1464 1463 1461 1460 1459 1457 1456 1454 1453 1451
1483 1482 1482 1482 1481 1481 1480 1479 1478 1478 1478 1478 1478 1478 1478 1477 1476 1474 1473 1472 1472 1471 1470 1469 1469 1469 1468 1468 1467 1466 1466 1464 1463 1462 1460 1459 1458 1456 1455 1453 1452 1450 1448
1481 1480 1480 1479 1478 1478 1477 1476 1476 1475 1475 1475 1475 1475 1475 1474 1472 1472 1471 1470 1469 1468 1468 1467 1466 1466 1465 1465 1464 1464 1463 1462 1461 1459 1458 1457 1455 1454 1452 1451 1449 1447 1445
1479 1478 1477 1477 1476 1475 1475 1474 1473 1472 1472 1472 1471 1471 1470 1470 1469 1468 1468 1467 1466 1465 1464 1464 1463 1462 1462 1461 1461 1461 1460 1459 1458 1457 1455 1454 1452 1451 1449 1448 1446 1444 1443
1476 1475 1475 1474 1473 1472 1471 1471 1470 1469 1469 1468 1468 1467 1467 1466 1466 1465 1464 1464 1463 1462 1461 1460 1459 1459 1458 1458 1457 1457 1457 1456 1454 1453 1452 1450 1449 1448 1446 1445 1443 1441 1440
1473 1472 1472 1471 1470 1469 1468 1467 1467 1466 1466 1465 1464 1463 1462 1462 1462 1461 1460 1460 1459 1458 1458 1457 1456 1456 1455 1454 1454 1454 1453 1452 1452 1450 1449 1447 1446 1444 1443 1441 1440 1439 1437
1470 1469 1468 1468 1467 1466 1465 1464 1464 1463 1462 1461 1461 1459 1459 1459 1458 1457 1457 1456 1456 1455 1454 1454 1453 1452 1452 1451 1451 1450 1450 1449 1448 1447 1445 1444 1442 1441 1440 1438 1437 1436 1435